GFSCGP_850_thetae_000.txt.gz
Theta_e
312 316 317 318 317 317 315 316 318 318 312 312 314 314 314 313 313 313 312 312 309 305 307 306 305 303 301 300 299 298 297 297 296 296 295 295 295 295 295 296 296 294 293 293
314 315 317 313 313 314 315 317 319 317 310 309 313 312 312 313 312 312 312 313 311 306 303 302 303 302 302 300 298 297 297 296 296 295 295 295 295 295 295 295 294 293 292 292
315 316 310 312 313 314 315 317 318 316 311 309 308 313 311 311 308 309 310 309 309 306 304 301 303 303 301 299 298 297 297 296 296 294 294 294 294 294 294 294 293 293 293 292
313 311 312 313 314 314 317 314 313 312 312 316 309 315 315 312 311 311 312 310 307 309 307 304 304 304 302 301 298 297 296 295 294 293 293 293 293 293 293 293 293 292 291 290
315 310 311 314 315 312 316 308 310 309 311 309 314 312 313 307 310 312 313 313 309 310 309 309 308 306 304 300 299 297 295 294 293 292 292 291 292 292 292 292 292 291 290 290
312 306 309 313 305 307 305 308 307 305 308 314 314 313 313 313 312 312 313 311 310 310 310 308 306 303 301 300 299 296 294 294 293 291 291 291 291 291 291 291 290 289 289 289
311 310 307 306 310 306 307 313 317 321 318 318 309 310 312 312 312 312 314 314 309 308 309 308 307 305 303 303 300 296 294 293 292 291 290 290 290 290 290 289 289 289 288 288
315 315 308 307 313 316 310 315 320 324 318 318 306 311 314 312 311 311 307 308 307 307 307 308 308 306 305 304 300 297 295 293 291 290 289 290 290 290 290 289 288 287 287 288
314 315 305 304 305 310 309 312 312 317 305 314 315 316 314 311 309 307 307 306 306 307 309 309 308 307 305 305 304 301 296 293 291 290 289 289 289 289 289 289 288 287 287 287
314 314 307 302 303 302 306 307 312 313 320 319 315 315 314 314 312 310 308 307 308 309 308 309 309 307 306 306 303 298 295 294 292 290 289 289 289 289 289 288 287 287 287 287
311 313 309 305 307 310 305 309 307 309 313 316 316 315 310 311 312 311 311 310 310 309 309 309 310 309 306 304 303 300 295 293 291 289 289 289 289 289 288 287 287 287 287 287
311 313 315 313 304 302 308 310 310 312 313 311 314 315 311 311 311 310 311 309 310 310 309 309 309 309 307 305 302 300 294 293 291 289 288 288 289 288 287 287 287 287 287 286
309 312 316 314 306 301 306 306 307 311 312 313 315 314 312 312 310 308 309 310 309 310 309 309 308 308 307 303 301 298 293 292 290 289 288 288 288 288 287 287 287 287 286 286
310 313 314 313 313 307 308 307 307 308 312 312 312 312 312 312 311 312 310 307 307 308 308 309 308 307 305 302 299 295 292 291 290 288 288 288 288 287 287 287 287 287 286 286
310 313 313 314 314 313 312 310 308 308 309 311 312 312 312 312 311 311 310 309 309 309 306 307 307 306 303 300 297 294 292 291 289 288 288 287 287 287 287 287 287 286 286 285
306 313 312 312 311 311 312 311 312 311 311 310 309 309 309 310 309 309 309 308 308 308 307 306 306 305 304 302 299 295 292 290 288 287 287 287 287 286 287 287 286 286 285 284
308 310 312 314 313 312 313 312 311 311 311 311 311 311 311 310 310 310 309 309 307 307 307 307 306 306 306 304 300 296 292 289 288 287 287 287 286 287 287 286 286 285 283 282
311 310 311 313 313 314 312 311 311 311 311 311 310 311 311 310 310 309 309 309 308 308 307 306 306 306 305 302 297 292 291 288 287 287 287 287 286 287 286 285 285 283 282 281
310 311 312 313 313 312 309 310 309 309 310 309 309 309 309 309 308 308 308 307 307 307 307 307 307 304 302 300 295 292 289 287 286 286 286 286 286 286 285 284 283 283 282 280
309 310 311 312 313 315 312 310 309 306 308 309 308 308 308 307 308 309 309 308 308 308 308 307 305 302 300 298 297 293 288 287 286 286 286 286 286 285 284 283 283 281 280 279
310 310 311 312 313 313 311 307 306 309 311 310 309 309 308 308 308 309 308 306 307 307 307 307 307 302 299 295 292 290 287 286 286 286 286 286 285 284 283 283 282 280 278 278
313 312 312 311 312 313 310 310 309 311 311 310 310 309 308 308 307 307 307 307 305 306 306 305 304 300 295 293 290 287 286 285 285 285 285 285 284 283 283 282 280 279 278 277
313 313 313 312 312 311 310 310 309 309 310 311 310 310 308 307 306 308 307 308 308 304 303 301 301 298 293 290 288 287 285 285 285 285 285 284 283 282 281 280 279 278 276 276
310 311 312 312 311 311 310 310 310 310 308 308 309 309 308 307 307 308 308 307 307 306 301 297 296 292 290 285 286 286 285 285 284 285 284 283 281 280 280 279 278 277 275 275
305 304 306 306 305 307 310 310 310 310 309 308 308 307 307 306 305 306 306 307 307 305 300 295 292 289 288 285 286 284 285 285 285 285 284 282 281 279 278 278 277 276 274 274
300 304 306 308 307 307 308 308 307 306 307 308 309 309 309 309 307 305 306 306 304 304 300 293 289 288 287 284 283 284 284 285 285 284 283 281 279 277 277 276 275 274 273 273

GFSCGP_850_thetae_003.txt.gz
Theta_e
315 317 318 319 319 319 319 318 318 318 319 316 317 317 317 317 316 316 316 315 315 315 315 310 307 306 304 301 300 301 301 301 299 298 296 296 296 296 296 296 297 298 297 296
316 316 317 317 316 317 318 318 318 319 319 314 316 316 317 317 316 315 315 314 315 315 314 309 307 305 303 301 302 301 301 300 299 297 296 296 295 295 295 296 297 297 296 296
316 317 314 316 317 316 317 317 318 319 319 315 315 316 317 316 314 314 313 313 313 313 313 309 306 303 302 302 302 302 301 300 299 297 296 296 295 294 294 295 296 296 295 295
316 315 315 315 315 316 317 317 318 318 318 319 314 317 317 317 316 315 313 313 314 312 310 308 305 303 304 304 303 302 301 300 299 298 297 295 295 294 293 294 296 296 295 293
315 315 313 315 316 316 317 312 315 316 316 318 317 317 317 313 314 314 314 314 315 313 310 308 306 308 307 305 305 303 302 300 299 298 297 296 294 294 293 294 295 295 293 293
313 309 312 315 309 312 310 312 312 312 314 318 317 318 317 317 315 315 315 315 315 312 309 307 307 307 307 305 305 303 303 301 299 298 296 295 294 293 293 293 294 293 293 292
315 313 311 309 312 309 311 315 318 322 321 320 318 317 318 317 315 315 315 315 314 311 309 308 306 308 307 307 306 302 303 303 300 297 296 295 294 293 292 292 293 293 293 291
316 316 312 310 314 317 312 316 320 325 320 320 313 317 317 317 316 314 314 314 312 310 309 309 309 309 309 308 306 303 304 304 300 297 295 294 293 292 291 291 292 292 291 290
315 315 308 310 310 314 313 313 315 320 319 319 317 318 319 318 315 314 313 311 311 309 308 310 309 310 309 308 308 308 304 302 301 298 295 294 292 291 291 291 291 291 290 289
314 315 313 305 305 307 310 311 315 315 322 319 316 317 317 318 316 314 313 312 312 310 308 308 309 309 310 309 308 306 303 302 300 298 296 294 292 291 290 290 290 290 289 288
313 315 313 306 308 312 308 310 310 311 317 318 318 317 315 315 315 314 315 313 313 312 310 309 309 309 309 309 307 306 304 302 299 297 295 293 291 290 289 290 290 289 288 288
312 314 315 314 313 310 311 312 313 314 314 314 315 316 314 314 314 313 313 312 313 312 311 311 310 310 310 311 308 305 303 300 299 297 294 292 290 289 289 289 289 289 288 288
311 313 315 314 310 305 308 311 311 313 313 314 316 316 314 314 314 314 312 312 311 310 310 310 309 309 310 309 308 306 303 301 297 294 292 291 289 289 289 289 289 288 288 288
311 313 313 313 314 313 312 310 310 311 312 313 313 313 314 314 313 313 313 313 312 311 310 310 309 308 308 308 305 303 301 299 296 294 291 290 288 289 289 288 288 288 287 287
309 312 312 314 313 313 312 313 311 310 310 311 312 313 313 313 313 313 313 312 311 311 310 310 308 308 307 307 305 302 300 298 295 292 290 289 288 288 288 288 288 287 287 286
309 311 311 312 311 311 311 311 312 312 312 312 312 310 311 311 311 311 311 311 310 310 309 309 309 308 307 307 306 304 300 296 294 291 289 287 288 288 288 288 288 287 286 285
309 310 312 313 312 312 313 313 312 312 312 313 313 313 313 313 313 313 312 312 311 311 310 309 309 308 307 307 307 304 300 295 293 289 288 287 288 288 288 288 287 286 285 285
312 310 311 315 314 315 313 312 312 312 312 313 313 312 312 313 313 312 311 311 311 310 309 309 308 308 307 306 304 301 298 295 292 289 288 287 287 287 288 287 286 286 285 285
311 312 314 314 315 314 312 313 312 313 313 312 312 312 312 311 310 310 310 310 309 309 309 308 308 307 307 305 303 299 294 291 290 289 287 286 287 287 287 286 286 285 284 283
310 311 312 314 315 316 313 312 311 311 312 311 310 310 310 309 310 310 310 309 309 309 309 308 309 307 306 304 303 301 298 293 289 289 287 286 286 286 286 286 285 284 283 282
311 310 312 312 314 314 312 311 309 313 314 311 310 309 309 309 309 310 309 309 309 309 308 308 308 308 307 305 303 301 298 296 292 289 286 286 286 286 286 285 284 283 282 282
314 314 312 312 313 314 312 311 312 312 312 312 311 311 310 310 310 309 309 308 308 308 307 307 308 307 306 303 300 299 300 295 290 288 286 285 286 286 285 285 284 282 281 280
314 312 311 313 313 311 311 312 311 311 312 311 311 311 311 311 309 308 308 308 308 308 306 305 305 305 304 302 299 296 294 293 289 285 285 285 285 286 285 283 282 280 279 279
301 303 308 306 308 308 308 308 308 309 308 308 308 308 309 310 309 309 309 307 307 307 306 303 302 302 301 299 295 291 291 289 286 284 284 284 286 285 284 282 280 279 278 279
297 298 299 299 298 303 304 305 303 304 304 303 304 305 305 306 307 308 310 309 307 307 305 304 304 300 298 295 292 289 288 288 285 285 285 286 285 284 282 280 278 278 277 276
295 295 296 297 299 299 300 296 296 296 297 297 298 299 302 304 306 306 306 307 308 306 306 305 303 300 296 292 290 288 286 285 284 285 283 284 284 283 282 279 278 277 276 275

GFSCGP_850_thetae_006.txt.gz
Theta_e
315 314 315 315 316 317 317 316 316 317 316 315 315 315 315 316 316 315 316 316 316 316 316 315 315 312 310 308 305 304 303 303 302 300 299 298 298 298 297 297 297 297 298 298
315 315 315 315 315 315 315 315 315 315 316 314 314 315 314 314 315 316 315 315 315 315 315 315 315 312 309 308 305 304 304 303 303 301 300 298 298 297 296 296 296 297 297 298
314 315 315 315 315 316 315 314 314 315 314 313 313 314 313 314 315 315 315 315 314 314 314 314 313 312 309 307 306 306 305 304 304 302 299 297 296 296 296 296 296 296 296 297
314 315 315 314 314 314 314 314 315 315 314 315 315 316 313 314 312 311 314 315 314 314 313 314 313 310 308 307 306 305 305 305 304 302 300 299 299 299 299 298 296 295 296 296
314 313 313 314 314 314 314 312 314 315 315 314 315 313 313 313 312 311 311 315 315 314 315 313 312 310 308 307 306 306 304 304 303 302 302 301 299 297 296 295 294 294 295 296
311 310 311 313 310 311 310 312 312 312 311 313 312 313 313 313 313 313 311 314 314 314 314 312 310 309 308 307 306 306 305 304 303 302 301 301 300 297 296 295 294 294 294 295
312 311 310 310 312 309 310 313 313 315 314 316 312 312 315 315 312 311 310 313 314 314 314 311 309 309 309 308 307 306 305 305 303 303 302 300 300 298 296 296 295 294 293 294
313 313 311 308 311 313 310 313 315 314 313 314 311 313 313 313 312 315 315 315 314 314 313 312 310 310 310 310 308 308 307 306 304 304 304 301 299 299 297 295 294 293 293 293
312 312 308 308 310 311 312 311 313 313 306 312 313 312 312 312 312 310 310 312 312 312 312 311 310 310 310 309 310 310 309 307 305 305 304 302 298 298 297 295 294 293 292 292
312 313 310 306 306 307 309 308 312 312 310 310 312 311 314 313 314 311 311 310 312 312 311 310 310 310 310 309 310 309 307 307 306 305 305 303 300 297 295 294 293 293 292 292
312 312 310 306 306 309 306 308 309 310 314 311 312 313 312 311 312 311 309 312 313 313 312 312 311 310 309 309 309 309 308 307 306 305 304 302 300 297 295 293 293 292 291 291
311 313 313 311 310 307 308 309 310 311 311 309 312 313 311 312 309 308 309 312 313 313 312 312 311 311 310 309 308 310 309 307 306 304 302 300 299 297 294 292 291 291 290 291
310 311 314 312 311 307 307 308 309 310 310 312 312 312 312 312 310 310 309 312 312 312 312 311 311 311 310 310 310 309 309 308 304 302 300 298 297 295 293 292 290 290 290 290
311 311 313 314 313 312 310 308 307 309 311 311 311 310 311 311 311 311 311 312 312 312 312 312 311 311 310 310 309 309 308 306 304 301 299 297 296 294 292 290 289 289 289 290
312 311 310 311 312 311 311 311 310 310 309 309 310 310 310 310 310 310 311 311 310 310 311 311 311 310 310 309 309 308 307 305 303 300 298 296 294 292 290 289 288 288 289 289
311 313 310 311 309 309 310 309 310 310 310 310 310 310 310 310 310 310 310 310 310 311 311 311 311 310 310 309 309 308 307 306 303 300 297 295 293 291 289 288 288 288 288 288
308 310 311 314 311 310 312 311 312 311 311 311 311 311 311 311 310 311 311 311 311 311 312 311 311 311 310 310 309 308 307 304 301 299 297 295 293 291 290 288 287 288 288 287
314 312 312 314 313 314 311 311 310 311 312 311 311 312 312 312 312 312 312 312 312 311 311 311 310 310 310 309 308 307 305 302 300 298 296 294 292 290 289 287 287 287 287 287
313 314 314 315 315 314 312 312 311 311 312 311 311 311 311 311 311 311 312 312 311 311 310 310 310 309 308 308 308 307 305 302 299 297 295 294 292 289 288 286 287 287 287 286
311 312 314 315 317 317 313 311 310 310 312 310 311 311 311 310 311 311 311 311 310 310 310 310 309 309 308 307 307 305 304 302 301 300 298 294 291 289 287 286 287 287 286 287
311 311 313 315 316 314 312 310 310 311 313 310 310 310 310 309 309 310 310 310 310 309 309 309 309 308 308 307 306 305 304 305 303 297 294 292 290 288 286 286 286 286 287 288
311 311 312 312 312 313 306 308 310 308 304 302 302 304 304 306 308 308 308 307 307 306 307 307 307 307 306 306 304 303 305 302 300 297 294 290 289 286 285 285 286 286 286 286
302 299 298 300 304 304 300 297 296 301 299 299 300 300 300 301 302 302 302 303 304 305 307 307 306 305 304 303 302 303 303 300 298 295 292 290 287 285 284 285 285 284 285 288
294 295 296 295 301 295 293 295 298 295 294 294 294 295 296 298 299 300 300 301 302 304 304 304 305 306 306 304 301 299 298 296 294 291 289 287 285 283 283 284 283 286 288 285
291 290 290 290 292 293 294 294 293 293 292 293 293 295 296 297 297 299 300 300 300 300 299 299 300 301 302 305 305 300 297 296 292 289 287 285 282 282 282 283 285 287 285 281
290 290 290 291 292 291 291 291 291 291 289 288 290 290 290 291 293 294 295 296 296 296 297 297 298 299 299 300 301 301 299 295 290 288 285 284 281 281 283 284 285 283 280 279

GFSCGP_850_thetae_009.txt.gz
Theta_e
312 310 311 312 312 312 312 311 311 313 313 314 314 313 314 313 313 312 315 316 317 317 317 316 316 315 315 313 312 310 309 307 306 305 303 301 300 301 300 299 299 298 298 298
313 312 312 312 311 312 312 312 312 313 311 311 312 313 313 310 313 314 314 315 316 315 315 315 315 315 314 314 312 310 309 307 307 305 305 303 303 301 300 299 298 298 297 297
312 313 313 313 313 313 312 312 312 312 312 310 310 311 312 311 312 314 315 316 316 315 315 315 314 314 314 313 312 310 309 308 307 306 304 302 299 298 298 297 297 297 297 296
311 312 312 312 312 312 313 311 312 312 312 313 311 314 311 311 311 310 313 316 316 316 315 314 314 314 314 313 311 310 309 307 306 305 304 303 303 302 302 302 300 298 296 296
311 312 310 311 312 311 313 312 312 313 312 311 313 312 314 310 310 311 311 314 316 316 315 314 313 313 313 312 311 309 308 307 306 306 305 304 302 300 300 300 298 297 296 295
308 310 311 311 310 310 310 311 311 310 308 312 310 311 312 310 311 311 311 314 316 317 314 313 313 313 312 311 309 308 307 307 307 306 305 304 303 301 299 298 297 297 296 295
308 308 308 310 311 308 310 310 311 310 310 314 309 310 313 312 310 310 311 315 317 316 313 314 313 313 312 310 309 308 307 307 307 307 307 306 304 301 300 299 298 297 296 295
310 310 308 307 310 309 308 310 310 309 312 313 309 310 311 310 310 313 315 316 315 314 313 314 313 312 311 310 309 308 308 307 307 308 308 307 305 302 300 299 298 297 297 297
308 310 308 307 308 309 309 310 310 311 297 307 313 310 309 310 309 308 309 309 311 313 314 313 312 311 310 310 310 311 310 309 308 308 307 307 305 303 301 299 298 296 296 294
310 310 309 306 307 307 308 307 310 309 309 307 312 309 312 311 312 311 308 306 311 312 312 312 311 311 311 311 311 310 310 309 309 308 308 307 307 305 302 299 298 296 293 292
308 310 311 305 306 308 306 308 308 309 309 313 312 313 309 311 310 310 307 309 311 312 312 312 312 312 311 311 310 310 309 308 308 307 307 307 307 305 302 300 297 295 292 292
309 310 310 310 306 305 307 309 309 311 311 308 312 313 313 309 310 307 310 312 311 311 312 312 312 312 312 311 310 310 310 308 309 308 306 305 304 303 301 299 297 294 292 291
311 311 314 313 311 305 307 306 308 309 308 311 313 313 312 311 311 311 307 309 311 311 312 312 312 312 312 311 311 310 310 309 308 308 307 304 303 302 300 299 296 293 292 290
312 310 313 316 314 312 311 310 308 310 311 312 312 312 311 311 310 310 310 311 310 311 311 311 312 312 312 311 311 310 310 309 309 308 306 304 303 302 300 299 295 293 291 290
312 312 311 312 313 312 312 313 312 311 311 311 312 311 309 310 310 310 310 310 310 309 309 310 310 311 311 311 311 310 310 309 308 307 305 304 303 301 299 297 295 293 291 290
311 314 314 314 311 311 313 312 312 312 312 312 311 311 310 311 311 311 311 311 310 310 310 310 311 311 311 311 311 311 310 309 309 307 306 303 302 300 298 296 294 292 291 289
312 311 314 316 313 313 313 313 313 312 311 311 312 311 310 310 310 311 311 311 311 310 310 310 311 311 312 311 311 311 310 309 308 306 304 302 301 299 297 295 293 292 290 289
310 310 311 315 314 316 311 309 310 311 311 311 311 311 311 311 311 312 311 311 311 311 311 311 311 311 312 310 309 309 309 308 307 305 304 302 300 298 296 294 292 291 290 288
310 311 313 314 315 314 313 309 310 310 311 310 310 311 311 310 310 310 309 307 307 307 308 309 310 311 310 309 308 308 308 307 305 305 304 302 300 298 296 293 292 290 289 287
308 310 312 312 313 313 312 309 309 310 313 299 300 301 301 304 306 306 304 301 302 303 304 304 305 307 307 308 307 307 307 307 306 306 305 302 299 298 296 294 292 290 288 286
304 308 311 313 313 311 303 297 302 313 300 296 297 297 296 299 300 299 299 299 299 298 298 300 301 306 304 303 304 305 305 306 305 304 302 300 298 296 293 291 290 288 287 285
300 300 302 301 307 308 297 297 293 294 296 295 294 293 294 294 295 296 297 297 297 297 297 299 300 303 304 304 302 301 301 303 302 300 299 297 296 294 291 289 287 287 285 284
295 294 294 295 296 293 294 292 292 295 293 292 292 292 293 293 294 295 296 297 296 297 297 296 300 300 298 299 300 302 301 299 298 297 297 295 293 290 288 288 286 285 283 283
290 291 291 290 291 291 290 291 291 290 290 290 289 288 289 291 292 290 291 292 293 293 293 294 294 296 296 296 297 298 299 301 301 298 295 294 291 289 286 285 284 284 283 282
289 290 288 288 289 289 290 290 288 288 288 287 286 286 286 284 284 285 286 287 289 291 292 292 293 293 294 296 297 298 298 299 299 299 300 299 292 290 287 285 284 283 282 283
290 290 289 288 289 288 288 287 286 285 283 282 282 282 283 281 280 281 282 282 283 284 286 289 292 293 293 296 297 298 298 298 296 295 293 290 290 290 287 285 281 280 281 282